Trenton, NJ

12:19 AM EST on February 07, 2016 (GMT -0500)
Trenton Mercer

Weather History for KTTN - March, 2013

Change the Weather History Date:

Wednesday, March 20, 2013

  Actual Average Record
Temperature  
Mean Temperature 39 °F 42 °F  
Max Temperature 46 °F 52 °F 83 °F (1945)
Min Temperature 31 °F 33 °F 15 °F (1923)
Degree Days  
Heating Degree Days 26 22  
Month to date heating degree days 514 505  
Since 1 July heating degree days 4115 4319  
Cooling Degree Days 0 0  
Month to date cooling degree days 0 0  
Year to date cooling degree days 0 0  
Moisture  
Dew Point 17 °F    
Average Humidity 43    
Maximum Humidity 54    
Minimum Humidity 31    
Precipitation  
Precipitation 0.00 in 0.14 in 1.74 in (1958)
Month to date precipitation 2.07 2.63  
Year to date precipitation 6.69 8.10  
Sea Level Pressure  
Sea Level Pressure 29.85 in    
Wind  
Wind Speed 9 mph (WNW)    
Max Wind Speed 21 mph    
Max Gust Speed 31 mph    
Visibility 10 miles    
Events      
T = Trace of Precipitation, MM = Missing Value Source: NWS Daily Summary

Daily Weather History Graph

Daily Weather History Graph

Search for Another Location

Airport or City:

Trip Planner

Search our weather history database for the weather conditions in past years. The results will help you decide how hot, cold, wet, or windy it might be!

Date:

Astronomy

Mar. 20, 2013 Rise Set
Actual Time 7:02 AM EDT 7:11 PM EDT
Civil Twilight 6:35 AM EDT 7:38 PM EDT
Nautical Twilight 6:03 AM EDT 8:10 PM EDT
Astronomical Twilight 5:31 AM EDT 8:42 PM EDT
Moon 12:43 PM EDT (3/20) 2:40 AM EDT (3/20)
Length of Visible Light 13h 03m
Length of Day
12h 09m
First Quarter, 59% of the Moon is Illuminated
Mar 20
First Quarter
Mar 27
Full
Apr 3
Last Quarter
Apr 10
New
Apr 18
First Quarter

Hourly Weather History & Observations

Time (EDT) Temp. Windchill Dew Point Humidity Pressure Visibility Wind Dir Wind Speed Gust Speed Precip Events Conditions
12:53 AM 36.0 °F 30.3 °F 17.1 °F 46% 29.84 in 10.0 mi NW 6.9 mph 18.4 mph N/A   Clear
1:53 AM 35.1 °F 27.9 °F 17.1 °F 48% 29.87 in 10.0 mi NW 9.2 mph - N/A   Clear
2:53 AM 34.0 °F 26.6 °F 16.0 °F 48% 29.89 in 10.0 mi NW 9.2 mph 17.3 mph N/A   Clear
3:53 AM 33.1 °F 25.5 °F 18.0 °F 54% 29.89 in 10.0 mi West 9.2 mph - N/A   Clear
4:53 AM 32.0 °F 26.4 °F 17.1 °F 54% 29.89 in 10.0 mi West 5.8 mph - N/A   Partly Cloudy
5:53 AM 30.9 °F 26.2 °F 16.0 °F 54% 29.90 in 10.0 mi West 4.6 mph - N/A   Clear
6:53 AM 32.0 °F 24.8 °F 16.0 °F 52% 29.90 in 10.0 mi WNW 8.1 mph - N/A   Clear
7:53 AM 34.0 °F 28.0 °F 16.0 °F 48% 29.90 in 10.0 mi WNW 6.9 mph - N/A   Clear
8:53 AM 35.1 °F 26.4 °F 17.1 °F 48% 29.90 in 10.0 mi West 12.7 mph 20.7 mph N/A   Clear
9:53 AM 37.9 °F 30.0 °F 16.0 °F 41% 29.90 in 10.0 mi NW 12.7 mph 25.3 mph N/A   Clear
10:53 AM 39.0 °F 31.0 °F 16.0 °F 39% 29.89 in 10.0 mi NW 13.8 mph 21.9 mph N/A   Clear
11:53 AM 41.0 °F 34.7 °F 16.0 °F 36% 29.88 in 10.0 mi West 10.4 mph 25.3 mph N/A   Clear
12:53 PM 43.0 °F 36.0 °F 18.0 °F 37% 29.86 in 10.0 mi West 13.8 mph - N/A   Clear
1:53 PM 45.0 °F 38.9 °F 18.0 °F 34% 29.84 in 10.0 mi WNW 12.7 mph 23.0 mph N/A   Partly Cloudy
2:53 PM 46.0 °F 38.5 °F 18.0 °F 33% 29.81 in 10.0 mi WNW 19.6 mph 31.1 mph N/A   Mostly Cloudy
3:53 PM 45.0 °F 37.4 °F 16.0 °F 31% 29.80 in 10.0 mi West 18.4 mph 26.5 mph N/A   Mostly Cloudy
4:53 PM 44.1 °F 39.5 °F 17.1 °F 34% 29.79 in 10.0 mi NW 8.1 mph 20.7 mph N/A   Overcast
5:53 PM 45.0 °F 41.8 °F 15.1 °F 30% 29.78 in 10.0 mi NW 5.8 mph - N/A   Mostly Cloudy
6:53 PM 43.0 °F 39.5 °F 16.0 °F 34% 29.78 in 10.0 mi NNW 5.8 mph - N/A   Scattered Clouds
7:53 PM 42.1 °F - 16.0 °F 35% 29.78 in 10.0 mi Calm Calm - N/A   Mostly Cloudy
8:53 PM 41.0 °F - 16.0 °F 36% 29.79 in 10.0 mi Calm Calm - N/A   Overcast
9:53 PM 39.0 °F - 19.9 °F 46% 29.81 in 10.0 mi Calm Calm - N/A   Overcast
10:53 PM 39.0 °F 33.4 °F 19.0 °F 45% 29.80 in 10.0 mi North 8.1 mph - N/A   Overcast
11:53 PM 37.9 °F 34.4 °F 19.9 °F 48% 29.80 in 10.0 mi NNE 4.6 mph - N/A   Overcast